Weather History for Karlovy Vary, Czech Republic

Change the Weather History Date:

Friday, October 5, 2012

  Actual Average (EDQM) Record (EDQM)
Temperature  
Mean Temperature 50 °F -  
Max Temperature 62 °F 53 °F 71 °F (2004)
Min Temperature 37 °F 43 °F 38 °F (2013)
Degree Days  
Heating Degree Days 16    
Moisture  
Dew Point 45 °F    
Average Humidity 80    
Maximum Humidity 100    
Minimum Humidity 63    
Precipitation  
Precipitation 0.00 in - - ()
Sea Level Pressure  
Sea Level Pressure 29.98 in    
Wind  
Wind Speed 5 mph ()    
Max Wind Speed 12 mph    
Max Gust Speed 30 mph    
Visibility 6.2 miles    
Events      
Averages and records for this station are not official NWS values.
T = Trace of Precipitation, MM = Missing Value Source: Averaged Metar Reports

Daily Weather History Graph

Daily Weather History Graph

Search for Another Location

Airport:

Trip Planner

Search our weather history database for the weather conditions in past years. The results will help you decide how hot, cold, wet, or windy it might be!

Date:

Astronomy

Oct. 05, 2012 Rise Set
Actual Time 7:15 AM CEST 6:37 PM CEST
Civil Twilight 6:42 AM CEST 7:09 PM CEST
Nautical Twilight 6:05 AM CEST 7:47 PM CEST
Astronomical Twilight 5:26 AM CEST 8:25 PM CEST
Moon 9:18 PM CEST (10/5) 12:37 PM CEST (10/5)
Length of Visible Light 12h 27m
Length of Day
11h 22m
Waning Gibbous, 76% of the Moon is Illuminated
Oct 5
Waning Gibbous
Oct 8
Last Quarter
Oct 15
New
Oct 22
First Quarter
Oct 29
Full

Hourly Weather History & Observations

Time (CEST) Temp. Windchill Dew Point Humidity Pressure Visibility Wind Dir Wind Speed Gust Speed Precip Events Conditions
12:00 AM 42.8 °F 38.0 °F 39.2 °F 87% 30.04 in - WSW 8.1 mph - N/A   Clear
1:00 AM 41.0 °F - 39.2 °F 93% 30.04 in - Variable 2.3 mph - N/A   Clear
2:00 AM 37.4 °F - 35.6 °F 93% 30.06 in - Calm Calm - N/A   Clear
3:00 AM 37.4 °F - 35.6 °F 93% 30.06 in 6.2 mi Variable 1.2 mph - N/A   Partly Cloudy
4:00 AM 37.4 °F - 35.6 °F 93% 30.06 in 6.2 mi Variable 2.3 mph - N/A   Mostly Cloudy
5:00 AM 39.2 °F - 39.2 °F 100% 30.06 in 6.2 mi Variable 1.2 mph - N/A   Mostly Cloudy
6:00 AM 37.4 °F - 37.4 °F 100% 30.06 in 6.2 mi Variable 2.3 mph - N/A   Scattered Clouds
7:00 AM 37.4 °F 33.8 °F 37.4 °F 100% 30.04 in - SE 4.6 mph - N/A   Clear
8:00 AM 39.2 °F - 39.2 °F 100% 30.04 in - Variable 2.3 mph - N/A   Clear
8:30 AM 41.0 °F 39.0 °F 41.0 °F 100% 30.04 in - SSW 3.5 mph - N/A   Clear
9:00 AM 42.8 °F - 41.0 °F 93% 30.04 in - Variable 1.2 mph - N/A   Clear
9:30 AM 46.4 °F 44.3 °F 42.8 °F 87% 30.01 in 6.2 mi SSW 4.6 mph - N/A   Partly Cloudy
10:00 AM 48.2 °F - 42.8 °F 82% 30.01 in 6.2 mi South 4.6 mph - N/A   Partly Cloudy
10:30 AM 48.2 °F - 42.8 °F 82% 30.01 in 6.2 mi SSW 6.9 mph 18.4 mph N/A   Scattered Clouds
11:00 AM 48.2 °F - 42.8 °F 82% 30.01 in 6.2 mi SSW 8.1 mph - N/A   Scattered Clouds
11:30 AM 51.8 °F - 44.6 °F 76% 30.01 in 6.2 mi SSW 6.9 mph - N/A   Mostly Cloudy
12:00 PM 51.8 °F - 44.6 °F 76% 29.98 in 6.2 mi SSW 9.2 mph - N/A   Mostly Cloudy
12:30 PM 51.8 °F - 44.6 °F 76% 29.98 in 6.2 mi SSW 6.9 mph - N/A   Mostly Cloudy
1:00 PM 51.8 °F - 46.4 °F 82% 29.98 in 6.2 mi SSW 6.9 mph - N/A   Mostly Cloudy
1:30 PM 55.4 °F - 48.2 °F 77% 29.95 in 6.2 mi SSW 8.1 mph - N/A   Mostly Cloudy
2:00 PM 57.2 °F - 48.2 °F 72% 29.95 in 6.2 mi SW 11.5 mph - N/A   Mostly Cloudy
2:30 PM 57.2 °F - 48.2 °F 72% 29.92 in 6.2 mi SW 11.5 mph 29.9 mph N/A   Mostly Cloudy
3:00 PM 57.2 °F - 48.2 °F 72% 29.92 in 6.2 mi SW 9.2 mph - N/A   Scattered Clouds
3:30 PM 59.0 °F - 50.0 °F 72% 29.92 in 6.2 mi SW 10.4 mph 23.0 mph N/A   Scattered Clouds
4:00 PM 59.0 °F - 50.0 °F 72% 29.92 in 6.2 mi SW 6.9 mph - N/A   Scattered Clouds
4:30 PM 60.8 °F - 50.0 °F 68% 29.92 in 6.2 mi SW 9.2 mph - N/A   Partly Cloudy
5:00 PM 62.6 °F - 50.0 °F 63% 29.92 in 6.2 mi SW 9.2 mph - N/A   Scattered Clouds
5:30 PM 60.8 °F - 50.0 °F 68% 29.92 in 6.2 mi SSW 8.1 mph - N/A   Partly Cloudy
6:00 PM 60.8 °F - 50.0 °F 68% 29.92 in 6.2 mi SSW 5.8 mph - N/A   Partly Cloudy
6:30 PM 59.0 °F - 50.0 °F 72% 29.92 in 6.2 mi SW 5.8 mph - N/A   Scattered Clouds
7:00 PM 59.0 °F - 50.0 °F 72% 29.92 in 6.2 mi SW 5.8 mph - N/A   Scattered Clouds
7:30 PM 59.0 °F - 50.0 °F 72% 29.92 in - SSW 5.8 mph - N/A   Clear
8:00 PM 57.2 °F - 51.8 °F 82% 29.95 in 6.2 mi SSW 5.8 mph - N/A   Partly Cloudy
8:30 PM 59.0 °F - 50.0 °F 72% 29.95 in 6.2 mi SW 8.1 mph - N/A   Partly Cloudy
9:00 PM 60.8 °F - 50.0 °F 68% 29.95 in 6.2 mi SW 8.1 mph - N/A   Mostly Cloudy
10:00 PM 60.8 °F - 50.0 °F 68% 29.95 in 6.2 mi WSW 11.5 mph 23.0 mph N/A   Mostly Cloudy
11:00 PM 60.8 °F - 50.0 °F 68% 29.98 in 6.2 mi WSW 9.2 mph - N/A   Partly Cloudy